This is the latest recevied weather packets stored in our database for station/object WX6HNX-14. If no packets are shown the sender has not sent any weather packets the latest 10 day(s).
| Time | Temp. | Humidity | Pressure | Rain* | Wind** | Luminosity | Snow |
|---|---|---|---|---|---|---|---|
| 1777864126 | 19.44° C | 49% | 1011.1 hPa | 0 mm | - | - | - |
| 1777863775 | 19.44° C | 48% | 1010.9 hPa | 0 mm | - | - | - |
| 1777863477 | 19.44° C | 48% | 1010.7 hPa | 0 mm | - | - | - |
| 1777863175 | 20° C | 48% | 1010.7 hPa | 0 mm | - | - | - |
| 1777862876 | 20° C | 48% | 1010.8 hPa | 0 mm | - | - | - |
| 1777862375 | 20° C | 47% | 1010.6 hPa | 0 mm | - | - | - |
| 1777861922 | 20.56° C | 47% | 1010.4 hPa | 0 mm | - | - | - |
| 1777861621 | 21.11° C | 46% | 1010.2 hPa | 0 mm | - | - | - |
| 1777861323 | 21.11° C | 45% | 1010 hPa | 0 mm | - | - | - |
| 1777860722 | 21.67° C | 45% | 1010 hPa | 0 mm | - | - | - |
| 1777860421 | 21.67° C | 45% | 1009.9 hPa | 0 mm | - | - | - |
| 1777860121 | 22.22° C | 45% | 1009.6 hPa | 0 mm | - | - | - |
| 1777859821 | 22.22° C | 44% | 1009.4 hPa | 0 mm | - | - | - |
| 1777859221 | 22.22° C | 45% | 1009.3 hPa | 0 mm | - | - | - |
| 1777858921 | 22.78° C | 45% | 1009.3 hPa | 0 mm | - | - | - |
| 1777858621 | 22.78° C | 45% | 1009.3 hPa | 0 mm | - | - | - |
| 1777858321 | 23.33° C | 45% | 1009.2 hPa | 0 mm | - | - | - |
| 1777858022 | 23.33° C | 45% | 1009.2 hPa | 0 mm | - | - | - |
| 1777857721 | 23.33° C | 46% | 1009.2 hPa | 0 mm | - | - | - |
| 1777857422 | 23.33° C | 46% | 1009.2 hPa | 0 mm | - | - | - |
| 1777857121 | 23.33° C | 46% | 1009.2 hPa | 0 mm | - | - | - |
| 1777856521 | 23.89° C | 46% | 1009.1 hPa | 0 mm | - | - | - |
| 1777856222 | 23.33° C | 46% | 1009.1 hPa | 0 mm | - | - | - |
| 1777855923 | 23.33° C | 46% | 1009 hPa | 0 mm | - | - | - |
| 1777855623 | 23.33° C | 46% | 1009.1 hPa | 0 mm | - | - | - |
* Rain latest hour (hover to see other rain measurements)
** Current wind speed in m/s (hover to see current wind gust speed)